STARLINK-5230 (55394 NORAD) Tracking and Keplerian Element Data

This shows tracking and keplerian element data for the satellite.

Feedback or suggestion? Click here.




ElementValue
Catalog55394
NameSTARLINK-5230
Epoch Orbit1518
Epoch Day127.12839121
Epoch Year2023
RAAN181.3451
Inclination69.9981
Eccentricity0.0003579
Argument of Perigee269.0669
Mean Anonmoly91.0116
Mean Motion15.6990956
Decay Rate-2.71E-05
L11 55394U 23014D 23127.12839121 -.00002710 00000+0 -20785-4 0 9995
L22 55394 69.9981 181.3451 0003579 269.0669 91.0116 15.69909560 15188



Live tracking and technical data element details for STARLINK-5230 (NORAD 55394). STARLINK-5230 can be tracked NOW for your location showing map with azimuth and elevation plus other details from your city location.







IsCatalogInMostPopularTable: catalog: 55394, numindb: 2
Update: records affected: 1



GetName: 55394 STARLINK-5230

Hit Count: updated at: Mon, 05 Jun 2023 20:01:05 GMT